Location: Malvern Link
(52.1333°N, 2.3000°W)
Time: 01:56:13
(UTC+00:00)

SL-14 R/B - Pass Details

Date: 18 September 2020
Orbit: 519 x 554 km, 82.4° (Epoch: 22 October)

Event Time Altitude Azimuth Distance (km) Brightness Sun altitude
Rises 20:45:44 0° 349° (N) 2,672 7.5 -22.3°
Reaches altitude 10° 20:47:52 10° 350° (N) 1,782 6.5 -22.6°
Enters shadow 20:51:29 75° 0° (N) 555 3.3 -23.1°
